TINTIN B (43217 NORAD) Tracking and Keplerian Element Data

This shows tracking and keplerian element data for the satellite.

Feedback or suggestion? Click here.




ElementValue
Catalog43217
NameTINTIN B
Epoch Orbit13190
Epoch Day189.94034637
Epoch Year2020
RAAN203.7848
Inclination97.4432
Eccentricity0.0014265
Argument of Perigee225.7522
Mean Anonmoly134.2579
Mean Motion15.86147441
Decay Rate0.00125665
L11 43217U 18020C 20189.94034637 .00125665 00000-0 50044-3 0 9995
L22 43217 97.4432 203.7848 0014265 225.7522 134.2579 15.86147441131909

Live tracking and technical data element details for TINTIN B (NORAD 43217). TINTIN B can be tracked NOW for your location showing map with azimuth and elevation plus other details from your city location.

Track the satellite on the map from your city or location and see movement details for azimuth, elevation, latitude, longitude, range, height, and movement on the map or in text.







IsCatalogInMostPopularTable: catalog: 43217, numindb: 564
Update: records affected: 1



GetName: 43217 TINTIN B

Hit Count: updated at: Wed, 08 Jul 2020 22:00:50 GMT